TimeHST,TemperatureF,Dew PointF,Humidity,Sea Level PressureIn,VisibilityMPH,Wind Direction,Wind SpeedMPH,Gust SpeedMPH,PrecipitationIn,Events,Conditions,WindDirDegrees,DateUTC
12:26 AM,51.8,50.0,94,30.30,12.0,NNW,1.2,-,N/A,,Mostly Cloudy,340,2013-10-04 10:26:00
12:56 AM,52.3,50.2,92,30.29,12.0,WSW,3.5,-,N/A,,Mostly Cloudy,250,2013-10-04 10:56:00
1:31 AM,51.8,50.0,94,30.29,12.0,West,4.6,-,N/A,,Overcast,260,2013-10-04 11:31:00
1:36 AM,51.8,48.2,88,30.29,12.0,West,3.5,-,N/A,,Overcast,260,2013-10-04 11:36:00
1:56 AM,52.0,50.2,94,30.29,12.0,West,4.6,-,N/A,,Mostly Cloudy,270,2013-10-04 11:56:00
2:06 AM,51.8,50.0,94,30.29,12.0,West,3.5,-,N/A,,Mostly Cloudy,260,2013-10-04 12:06:00
2:16 AM,51.8,50.0,94,30.29,12.0,West,2.3,-,N/A,,Mostly Cloudy,260,2013-10-04 12:16:00
2:51 AM,51.8,48.2,88,30.28,12.0,West,2.3,-,N/A,,Mostly Cloudy,270,2013-10-04 12:51:00
2:56 AM,50.5,48.6,93,30.28,12.0,ESE,3.5,-,N/A,,Mostly Cloudy,110,2013-10-04 12:56:00
3:56 AM,48.9,42.8,79,30.28,12.0,ESE,3.5,-,N/A,,Scattered Clouds,120,2013-10-04 13:56:00
4:56 AM,46.9,41.5,81,30.29,12.0,ESE,2.3,-,N/A,,Scattered Clouds,120,2013-10-04 14:56:00
5:17 AM,48.2,42.8,82,30.29,12.0,ESE,1.2,-,N/A,,Mostly Cloudy,120,2013-10-04 15:17:00
5:28 AM,-9999,-9999,N/A,-9999,-9999.0,North,-9999.0,-,N/A,,Unknown,0,2013-10-04 15:28:00
5:37 AM,50.0,44.6,82,30.30,12.0,North,-9999.0,-,N/A,,Mostly Cloudy,0,2013-10-04 15:37:00
5:56 AM,50.5,44.4,80,30.30,12.0,SE,1.2,-,N/A,,Overcast,130,2013-10-04 15:56:00
6:56 AM,52.0,45.3,78,30.31,4.0,ESE,1.2,-,N/A,,Mostly Cloudy,110,2013-10-04 16:56:00
10:14 AM,66.2,51.8,60,30.33,12.0,South,10.4,17.3,N/A,,Clear,170,2013-10-04 20:14:00
10:19 AM,64.4,51.8,64,30.33,12.0,SE,8.1,17.3,N/A,,Clear,130,2013-10-04 20:19:00
10:24 AM,66.2,51.8,60,30.33,12.0,South,5.8,-,N/A,,Clear,170,2013-10-04 20:24:00
10:29 AM,64.4,51.8,64,30.33,12.0,WSW,2.3,13.8,N/A,,Clear,240,2013-10-04 20:29:00
10:34 AM,66.2,51.8,60,30.33,12.0,SE,9.2,15.0,N/A,,Clear,130,2013-10-04 20:34:00
10:39 AM,66.2,51.8,60,30.33,12.0,SSE,4.6,15.0,N/A,,Clear,160,2013-10-04 20:39:00
10:44 AM,66.2,51.8,60,30.33,12.0,South,9.2,13.8,N/A,,Partly Cloudy,180,2013-10-04 20:44:00
10:49 AM,68.0,53.6,60,30.32,12.0,South,13.8,21.9,N/A,,Partly Cloudy,170,2013-10-04 20:49:00
10:54 AM,66.2,51.8,60,30.32,12.0,South,8.1,21.9,N/A,,Partly Cloudy,180,2013-10-04 20:54:00
10:59 AM,68.0,53.6,60,30.32,12.0,SSE,9.2,18.4,N/A,,Partly Cloudy,150,2013-10-04 20:59:00
11:04 AM,68.0,53.6,60,30.32,12.0,South,12.7,18.4,N/A,,Partly Cloudy,190,2013-10-04 21:04:00
11:09 AM,68.0,53.6,60,30.32,12.0,SSE,9.2,24.2,N/A,,Scattered Clouds,150,2013-10-04 21:09:00
11:44 AM,68.0,53.6,60,30.31,12.0,South,10.4,18.4,N/A,,Mostly Cloudy,170,2013-10-04 21:44:00
11:56 AM,68.9,52.7,56,30.31,12.0,South,10.4,18.4,N/A,,Scattered Clouds,190,2013-10-04 21:56:00
12:16 PM,68.0,51.8,56,30.31,12.0,South,6.9,16.1,N/A,,Mostly Cloudy,190,2013-10-04 22:16:00
12:56 PM,66.0,54.7,67,30.29,12.0,West,10.4,16.1,N/A,,Mostly Cloudy,260,2013-10-04 22:56:00
1:41 PM,68.0,55.4,64,30.27,12.0,WSW,11.5,18.4,N/A,,Mostly Cloudy,250,2013-10-04 23:41:00
1:46 PM,68.0,53.6,60,30.27,12.0,WSW,8.1,18.4,N/A,,Mostly Cloudy,240,2013-10-04 23:46:00
1:56 PM,67.6,54.3,62,30.27,12.0,West,10.4,16.1,N/A,,Mostly Cloudy,260,2013-10-04 23:56:00
2:16 PM,68.0,55.4,64,30.27,12.0,West,11.5,17.3,N/A,,Mostly Cloudy,260,2013-10-05 00:16:00
2:46 PM,66.2,55.4,68,30.26,12.0,WSW,9.2,17.3,N/A,,Mostly Cloudy,240,2013-10-05 00:46:00
2:56 PM,67.3,55.9,67,30.26,12.0,WSW,11.5,17.3,N/A,,Mostly Cloudy,240,2013-10-05 00:56:00
3:51 PM,66.2,57.2,73,30.26,12.0,WSW,10.4,19.6,N/A,,Mostly Cloudy,250,2013-10-05 01:51:00
3:56 PM,65.3,56.7,74,30.26,12.0,WSW,8.1,16.1,N/A,,Mostly Cloudy,250,2013-10-05 01:56:00
4:11 PM,64.4,55.4,73,30.27,12.0,West,8.1,-,N/A,,Mostly Cloudy,260,2013-10-05 02:11:00
4:26 PM,64.4,55.4,73,30.26,12.0,West,10.4,16.1,N/A,,Mostly Cloudy,260,2013-10-05 02:26:00
4:31 PM,62.6,55.4,77,30.26,12.0,West,11.5,17.3,N/A,,Mostly Cloudy,270,2013-10-05 02:31:00
4:36 PM,62.6,55.4,77,30.26,12.0,West,10.4,-,N/A,,Mostly Cloudy,260,2013-10-05 02:36:00
4:41 PM,64.4,55.4,73,30.26,12.0,West,10.4,-,N/A,,Mostly Cloudy,260,2013-10-05 02:41:00
4:46 PM,62.6,55.4,77,30.27,12.0,West,12.7,-,N/A,,Mostly Cloudy,260,2013-10-05 02:46:00
4:56 PM,63.3,55.8,76,30.27,12.0,West,11.5,-,N/A,,Mostly Cloudy,260,2013-10-05 02:56:00
5:36 PM,59.0,55.4,88,30.27,12.0,WSW,4.6,-,N/A,,Mostly Cloudy,250,2013-10-05 03:36:00
5:46 PM,59.0,55.4,88,30.27,12.0,WSW,3.5,-,N/A,,Mostly Cloudy,250,2013-10-05 03:46:00
5:56 PM,59.0,55.2,87,30.27,12.0,WSW,3.5,-,N/A,,Overcast,250,2013-10-05 03:56:00
6:11 PM,59.0,51.8,77,30.27,12.0,South,5.8,-,N/A,,Mostly Cloudy,180,2013-10-05 04:11:00
6:21 PM,59.0,51.8,77,30.28,12.0,SE,6.9,-,N/A,,Scattered Clouds,140,2013-10-05 04:21:00
6:56 PM,55.2,50.5,84,30.29,12.0,SE,10.4,17.3,N/A,,Scattered Clouds,130,2013-10-05 04:56:00
7:56 PM,54.1,48.9,82,30.29,12.0,ESE,3.5,-,N/A,,Clear,110,2013-10-05 05:56:00
8:56 PM,54.9,49.5,82,30.32,12.0,ESE,8.1,-,N/A,,Clear,120,2013-10-05 06:56:00
9:56 PM,53.6,48.9,84,30.32,12.0,ESE,9.2,17.3,N/A,,Clear,120,2013-10-05 07:56:00
10:56 PM,50.9,43.0,74,30.32,12.0,ESE,4.6,-,N/A,,Clear,120,2013-10-05 08:56:00
11:56 PM,52.7,45.3,76,30.30,12.0,ESE,6.9,-,N/A,,Clear,120,2013-10-05 09:56:00